Torna al catalogo

STARLINK-31948

AttivoComunicazioniVLEO
NORAD 59941·PAYLOAD·🇺🇸 United States

Lanciato Jun 1, 2024 da Cape Canaveral Space Force Station

Loading…

Prossimi Passaggi (prossime 24 ore)

TLE

AggiornatoSource: CelesTrak SupGP

Epoca: Sep 14, 2026, 13:35 UTC

1 59941C 24106V   26257.56645833 -.00043636  00000+0 -15808-2 0  2577
2 59941  43.0033 342.5948 0001324 268.7390 156.0495 15.27593726    11

Traccia STARLINK-31948 in tempo reale con AllMySat

Download on the App Store